Terminal Aerodrome Forecast
Issued by NWS

Home | Current Version | Previous Version | Text Only | Print | Product List | Glossary On
Versions: 1 2 3 4 5 6 7 8 9 10 11 12 13 14 15 16
000
FTUS42 TJSJ 250541
TAFKPK
TAF
TKPK 250541Z 2506/2606 08010KT P6SM VCTS FEW018CB FEW020
     FM251130 10015KT P6SM VCSH SCT018 SCT035 BKN070
     FM252300 08008KT P6SM FEW018 SCT040
      AMD NOT SKED TIL 251100=

USA.gov is the U.S. government's official web portal to all federal, state and local government web resources and services.